Vorticity
nan nan nan nan nan nan nan nan nan nan nan nan nan nan nan nan nan nan nan nan nan nan nan nan nan nan nan nan nan nan nan nan nan nan nan nan nan nan nan nan nan nan nan
nan 8 8 8 10 8 8 9 9 8 8 8 8 8 7 8 9 8 8 9 10 9 8 7 7 8 8 7 8 7 8 8 7 7 7 10 9 9 10 9 10 10 nan
nan 8 8 9 9 9 9 10 9 9 8 9 9 9 8 8 7 7 8 8 9 9 9 9 9 7 7 8 8 8 9 9 8 6 7 9 10 9 12 12 9 9 nan
nan 8 8 10 9 9 9 10 9 8 9 9 8 8 8 8 8 8 8 8 8 8 9 9 9 9 9 8 8 8 8 9 9 8 8 9 9 8 7 9 11 11 nan
nan 10 9 9 9 9 10 10 9 9 9 9 8 8 8 8 10 12 9 8 8 8 8 9 9 11 10 8 7 7 7 8 7 8 8 9 9 9 8 8 9 9 nan
nan 9 10 10 10 10 9 10 9 9 9 8 8 9 8 9 12 12 9 8 8 8 8 9 9 11 12 11 8 5 5 6 4 5 6 7 8 8 8 8 10 10 nan
nan 10 10 10 10 9 9 9 10 10 9 9 9 9 9 9 13 12 9 5 9 9 8 8 9 10 10 10 13 9 7 9 7 5 7 7 7 9 9 11 12 12 nan
nan 9 9 10 9 10 10 9 9 10 9 10 10 9 9 11 14 11 10 6 7 8 9 9 8 9 9 12 7 8 10 12 14 11 8 5 8 9 9 10 12 13 nan
nan 9 10 10 10 10 10 9 9 10 9 10 9 10 8 10 13 11 8 9 10 11 11 11 11 8 13 13 7 8 9 10 14 12 8 8 9 10 8 11 11 10 nan
nan 10 9 10 10 10 10 10 9 9 8 9 11 11 9 11 11 14 5 6 11 12 12 14 13 12 13 10 7 7 9 10 8 12 16 15 12 12 15 10 9 11 nan
nan 12 11 11 9 9 8 10 11 9 10 11 10 11 12 10 12 15 6 3 9 10 10 12 17 20 9 8 8 5 7 8 12 13 11 13 13 13 13 13 13 10 nan
nan 11 10 9 9 11 11 10 10 10 9 9 10 10 12 14 15 13 13 7 2 7 9 9 15 17 14 9 8 9 10 9 10 12 12 10 10 11 13 11 13 15 nan
nan 10 10 10 10 10 11 9 10 10 10 10 10 10 11 13 17 15 12 13 5 6 7 8 13 14 11 11 12 13 11 11 11 10 10 10 10 10 12 13 15 13 nan
nan 11 11 11 11 9 9 10 10 10 10 10 10 10 10 11 11 13 13 14 14 10 10 12 12 13 13 10 13 14 13 12 12 11 10 11 13 12 11 12 11 10 nan
nan 17 15 14 14 10 9 11 15 14 14 13 12 11 11 10 12 12 10 10 14 16 14 11 13 13 11 12 11 11 11 13 12 12 12 11 10 10 12 12 12 10 nan
nan 12 15 18 14 13 13 8 5 12 14 12 14 16 14 8 16 15 8 10 14 13 10 13 12 11 11 11 11 12 12 11 11 11 11 11 11 12 11 12 11 10 nan
nan 11 8 10 14 15 11 10 7 7 8 10 10 11 9 8 12 15 16 16 16 7 8 11 10 10 10 11 12 11 12 14 12 10 10 11 11 13 12 10 11 11 nan
nan 14 15 8 7 11 11 10 11 8 8 13 15 13 15 14 8 14 17 6 4 7 12 11 11 11 11 11 11 11 12 13 11 11 11 11 12 11 10 9 10 10 nan
nan 11 10 13 11 9 11 10 11 11 11 11 10 12 14 14 16 18 8 3 7 8 8 10 12 13 12 11 12 13 12 12 11 10 11 11 11 11 9 9 11 12 nan
nan 12 10 10 14 13 11 11 10 11 11 10 8 10 10 11 13 11 10 11 10 10 11 12 12 12 13 13 12 11 11 12 12 11 11 10 12 11 9 11 12 12 nan
nan 10 12 12 11 11 11 11 10 10 10 11 12 15 12 7 9 12 11 12 12 11 12 14 14 12 12 13 12 12 10 10 10 10 11 11 11 10 10 12 13 11 nan
nan 10 11 11 12 12 10 10 11 10 10 9 11 18 16 9 11 12 12 12 14 14 14 14 13 13 12 11 11 12 11 10 11 10 11 12 12 10 12 11 13 12 nan
nan 10 10 11 11 11 12 11 11 11 10 10 11 12 13 12 13 15 15 13 14 15 13 11 11 12 12 12 10 11 12 12 12 13 12 12 11 12 11 11 12 11 nan
nan 15 12 12 11 12 12 12 12 12 12 15 14 15 14 13 14 17 18 14 12 15 16 14 14 14 12 12 12 11 15 13 12 15 12 9 9 10 10 10 11 12 nan
nan 20 23 20 17 18 17 16 15 16 18 18 18 16 14 15 15 14 14 17 13 11 12 13 15 16 14 14 15 10 8 17 12 14 17 11 13 11 7 9 11 13 nan
nan nan nan nan nan nan nan nan nan nan nan nan nan nan nan nan nan nan nan nan nan nan nan nan nan nan nan nan nan nan nan nan nan nan nan nan nan nan nan nan nan nan nan
CAPE
1048 1111 1227 1282 1034 1099 1016 1017 1409 1201 1072 1139 1309 1403 1521 1624 1862 2165 2274 2177 2465 2658 2710 2608 2574 2525 2120 1959 1774 1465 1271 859 748 371 359 371 656 791 804 944 852 831 496
967 1169 1222 1355 1422 984 1220 984 941 1224 1109 1126 1164 1320 1386 1505 1732 1994 1982 1873 2368 2545 2678 2804 2812 2478 2643 2608 2288 2400 2064 1769 1162 2097 1686 1135 1347 845 1293 960 710 312 509
826 796 1191 1379 1305 1547 1507 1457 1202 1210 1304 1038 1181 1319 1589 1472 1697 1913 2031 2132 2463 2578 2653 2784 2781 2829 2948 2681 2622 2309 2058 2250 2095 1755 1916 1819 1827 1414 1443 1386 975 1349 672
711 855 1267 1454 1501 1485 1591 1653 1269 1499 1508 1298 1453 1639 1455 1271 1308 1354 1561 2067 2297 2333 2469 2584 2650 2752 2885 3044 2968 2924 2788 2627 2500 2135 1787 1644 1576 1936 1555 1208 1226 1346 1374
1109 1173 1343 1565 1594 1711 1755 1674 1385 1427 1570 1815 1558 1430 1418 1297 966 1605 1588 1792 2225 2393 2490 2628 2670 2462 2142 2347 2696 3377 3116 2797 2497 2260 2137 2082 2002 2042 2371 2011 1911 1835 1971
1257 1310 1575 1717 1757 1768 1841 1911 1825 1678 1377 1721 1605 1531 1513 1092 486 319 1055 1665 1865 2213 2279 2427 2631 2075 1666 1068 902 1243 1966 3407 3076 2695 2400 2501 3643 3077 2624 2599 2721 2423 2485
1272 1430 1672 1833 1863 1865 1839 1822 2026 2182 1804 1958 1757 1624 1743 1719 739 30 10 1293 2010 2401 2774 2635 2002 1523 2179 2701 1644 269 266 282 768 2904 3414 3358 3638 3518 4042 3861 2966 2427 1891
1385 1430 1557 1800 1856 1913 1899 1921 1886 1434 1810 2100 1895 1940 2012 1995 1047 82 0 975 2056 2520 2603 2654 2799 2748 2921 2540 2326 2283 2435 2447 2208 1655 2298 2737 3013 3352 3773 3698 2681 1864 1510
1533 1570 1586 1602 1783 2003 2032 2021 1912 1888 1877 1908 1871 2070 2368 2301 884 24 0 810 1115 2257 2470 2707 2830 2870 2236 1625 2122 2361 2851 2690 2292 1822 1450 1361 1058 454 320 1049 1125 1749 1626
1695 1700 1750 1759 1857 1953 2053 2172 2326 2349 2159 1837 1869 2015 1649 2299 1445 61 0 1175 1816 1578 2486 2796 1761 1832 2089 1486 1963 2358 2944 2907 3127 3357 3395 1881 857 1341 257 307 1263 1254 1208
1423 1528 1891 2010 2075 2207 2283 2407 2487 2489 2586 2719 2767 2736 2484 2229 2200 367 0 1509 1751 2053 2144 2302 2427 1117 692 641 485 2797 3166 3129 3182 3464 3562 3456 3285 2876 2817 3231 2635 2032 1182
2051 1946 2230 2306 1813 1779 2719 2538 2643 2773 2774 2826 2791 2640 2669 3031 2021 1398 0 47 1807 2481 2722 2827 2990 2270 1080 175 0 626 1058 1105 2465 2803 3011 2779 2942 2885 2784 2781 2587 1921 870
1938 2322 2450 2592 2488 2623 2782 2732 2518 2773 2516 2606 2600 2665 2681 2859 3195 1303 83 0 0 1487 2721 2797 2522 2240 1725 422 1 69 2 478 1556 1960 2200 2570 2755 2627 2119 1469 315 20 7
1833 1906 1855 2006 2221 2402 2210 2285 2321 2389 2605 2587 2755 2874 2982 3157 3339 3429 1886 313 10 41 242 1660 2224 2064 1737 1931 1384 224 221 1595 2348 2384 2464 2522 2449 1748 1194 646 70 7 4
2175 1926 1561 1636 1799 2230 2408 2285 2386 2936 2465 2829 2980 3117 3283 3438 3435 3113 3348 3417 3081 1991 1719 2216 2264 1533 1740 1491 1731 2160 1701 810 546 862 1373 1873 1348 1006 435 155 13 6 8
1314 1706 1764 2830 2851 2369 2177 1897 1 0 1 2 27 1186 3304 2835 2562 2771 2592 2637 2524 949 1463 2705 2199 1770 1822 1942 1938 1963 1769 565 725 775 911 1099 1068 745 79 55 16 34 9
127 693 716 1160 2088 2920 2881 2533 2670 598 0 0 0 2 2 920 100 930 1898 67 0 1 2212 2551 2722 2380 2237 2206 2188 2042 1249 1037 1251 745 885 970 661 212 11 13 20 31 24
0 0 369 1275 1711 1929 2073 2357 2472 2353 2726 2904 79 0 1 2 3 3 2 6 192 1 1581 2581 2768 2814 2742 2730 2314 1705 1140 695 355 652 930 379 100 122 10 8 5 17 5
0 0 1 165 912 1109 1730 1922 2034 2161 2512 2707 2108 140 1 1 2 2 2 1938 3051 3499 2379 2489 2826 2784 2734 2355 1808 1038 430 232 722 1241 869 67 52 62 20 19 7 1 2
0 0 0 0 8 579 1142 1684 1729 1928 1952 2183 2666 2437 617 1 291 210 2 29 2941 3999 3910 2769 1664 1535 1280 953 450 424 475 128 490 513 97 89 64 11 11 12 5 12 6
0 0 0 0 0 44 436 1209 1478 1651 1653 1508 1907 1879 975 705 2147 1972 1508 976 2149 3365 3106 2519 1757 1174 535 559 779 886 759 177 109 21 40 11 30 13 12 14 21 9 4
1 0 0 0 0 0 160 455 1199 1500 1383 1114 1086 544 2 5 1191 1669 1647 1860 2195 2004 1420 768 213 69 0 0 5 110 205 113 33 13 6 7 14 12 16 9 9 13 7
3 4 4 0 0 0 1 208 362 1173 1293 1229 915 199 1 1 411 1386 1653 1480 808 591 345 16 0 0 0 0 0 65 87 7 3 7 5 4 9 12 9 5 1 0 18
5 2 1 6 0 0 3 99 216 516 925 862 866 430 2 3 141 143 250 220 54 6 52 61 48 12 1 1 1 2 3 6 6 6 11 13 4 0 6 8 1 0 20
3 4 8 7 5 0 56 127 397 649 369 64 0 1 0 0 0 0 0 0 0 0 0 0 0 2 4 1 0 2 0 3 1 0 12 15 17 27 27 22 17 14 10
5 4 4 4 4 2 2 1 2 1 1 2 2 1 1 0 0 0 0 0 0 0 0 0 0 0 0 0 0 0 0 0 0 2 10 19 33 42 37 39 34 38 28